Wetterdaten: Woche 05.02.18 - 11.02.18 (KW6)
Datum Zeit Temp. A. Pool Temp. Feuchte A. Luftdruck Regen Wind Richtung Sonnenschein ET UV Solar Taupunkt Windchill Windben Empfang
05.02.2018 00:00 -2,5 C 4,4 C 96 % 1021,6 hPa 0,0 l/m 1,8 km/h (1 Bft) O-NO 0,00 h 0,000 mm 0,0 UV-I 0 W/m -3,0 C -2,5 C 2,6 km/h (1 Bft) 97,79 %
05.02.2018 01:00 -2,5 C 4,4 C 96 % 1021,8 hPa 0,0 l/m 3,1 km/h (1 Bft) O-NO 0,00 h 0,000 mm 0,0 UV-I 0 W/m -3,1 C -2,5 C 4,9 km/h (1 Bft) 97,89 %
05.02.2018 02:00 -2,7 C 4,4 C 96 % 1021,9 hPa 0,0 l/m 2,5 km/h (1 Bft) O-NO 0,00 h 0,000 mm 0,0 UV-I 0 W/m -3,3 C -2,7 C 4,2 km/h (1 Bft) 97,56 %
05.02.2018 03:00 -2,9 C 4,4 C 96 % 1021,9 hPa 0,0 l/m 4,0 km/h (1 Bft) NO 0,00 h 0,000 mm 0,0 UV-I 0 W/m -3,4 C -2,9 C 6,3 km/h (2 Bft) 96,36 %
05.02.2018 04:00 -3,0 C 4,4 C 96 % 1022,5 hPa 0,0 l/m 3,5 km/h (1 Bft) O-NO 0,00 h 0,000 mm 0,0 UV-I 0 W/m -3,6 C -3,0 C 5,6 km/h (1 Bft) 98,80 %
05.02.2018 05:00 -3,1 C 4,4 C 95 % 1022,9 hPa 0,0 l/m 4,8 km/h (1 Bft) NO 0,00 h 0,000 mm 0,0 UV-I 0 W/m -3,8 C -3,1 C 6,9 km/h (2 Bft) 95,52 %
05.02.2018 06:00 -2,9 C 4,4 C 94 % 1023,1 hPa 0,0 l/m 5,0 km/h (1 Bft) NO 0,00 h 0,000 mm 0,0 UV-I 0 W/m -3,8 C -3,1 C 7,5 km/h (2 Bft) 99,00 %
05.02.2018 07:00 -2,8 C 4,4 C 93 % 1023,5 hPa 0,0 l/m 8,3 km/h (2 Bft) O-NO 0,07 h 0,000 mm 0,0 UV-I 13 W/m -3,8 C -5,1 C 12,3 km/h (3 Bft) 97,99 %
05.02.2018 08:00 -2,4 C 4,4 C 91 % 1023,9 hPa 0,0 l/m 10,3 km/h (2 Bft) O-NO 0,47 h 0,000 mm 0,0 UV-I 71 W/m -3,7 C -6,3 C 15,5 km/h (3 Bft) 96,69 %
05.02.2018 09:00 -1,6 C 4,4 C 91 % 1024,1 hPa 0,0 l/m 10,1 km/h (2 Bft) O-NO 0,77 h 0,025 mm 0,0 UV-I 188 W/m -2,9 C -5,1 C 14,9 km/h (3 Bft) 97,35 %
05.02.2018 10:00 -0,9 C 4,4 C 90 % 1024,0 hPa 0,0 l/m 15,9 km/h (3 Bft) O-NO 0,67 h 0,077 mm 0,5 UV-I 277 W/m -2,3 C -8,5 C 22,0 km/h (4 Bft) 98,66 %
05.02.2018 11:00 0,2 C 4,4 C 86 % 1023,8 hPa 0,0 l/m 18,2 km/h (3 Bft) O-NO 0,90 h 0,101 mm 0,8 UV-I 394 W/m -1,9 C -8,5 C 24,9 km/h (4 Bft) 98,29 %
05.02.2018 12:00 1,1 C 4,4 C 82 % 1023,3 hPa 0,0 l/m 17,1 km/h (3 Bft) O-NO 0,97 h 0,153 mm 0,9 UV-I 442 W/m -1,6 C -6,7 C 24,2 km/h (4 Bft) 98,36 %
05.02.2018 13:00 2,0 C 4,4 C 78 % 1022,7 hPa 0,0 l/m 16,7 km/h (3 Bft) O-NO 0,90 h 0,177 mm 0,7 UV-I 387 W/m -1,4 C -5,4 C 24,3 km/h (4 Bft) 97,90 %
05.02.2018 14:00 2,7 C 4,4 C 73 % 1022,4 hPa 0,0 l/m 18,6 km/h (3 Bft) O-NO 1,00 h 0,153 mm 0,5 UV-I 400 W/m -1,7 C -5,4 C 25,7 km/h (4 Bft) 96,33 %
05.02.2018 15:00 2,1 C 4,4 C 75 % 1022,1 hPa 0,0 l/m 18,7 km/h (3 Bft) O-NO 0,87 h 0,178 mm 0,0 UV-I 199 W/m -1,9 C -6,3 C 26,0 km/h (4 Bft) 97,27 %
05.02.2018 16:00 1,1 C 4,4 C 79 % 1021,8 hPa 0,0 l/m 15,2 km/h (3 Bft) O-NO 1,00 h 0,101 mm 0,0 UV-I 63 W/m -2,2 C -5,6 C 21,5 km/h (4 Bft) 99,10 %
05.02.2018 17:00 0,2 C 4,4 C 83 % 1021,8 hPa 0,0 l/m 14,4 km/h (3 Bft) O-NO 0,00 h 0,051 mm 0,0 UV-I 8 W/m -2,3 C -6,3 C 20,0 km/h (4 Bft) 98,36 %
05.02.2018 18:00 -0,0 C 4,4 C 83 % 1021,8 hPa 0,0 l/m 14,9 km/h (3 Bft) O-NO 0,00 h 0,025 mm 0,0 UV-I 0 W/m -2,6 C -6,9 C 21,1 km/h (4 Bft) 96,78 %
05.02.2018 19:00 0,1 C 4,4 C 80 % 1021,7 hPa 0,0 l/m 18,5 km/h (3 Bft) O-NO 0,00 h 0,026 mm 0,0 UV-I 0 W/m -2,9 C -8,7 C 25,5 km/h (4 Bft) 97,68 %
05.02.2018 20:00 -0,1 C 4,4 C 77 % 1021,5 hPa 0,0 l/m 20,8 km/h (4 Bft) O-NO 0,00 h 0,025 mm 0,0 UV-I 0 W/m -3,6 C -10,1 C 28,3 km/h (4 Bft) 98,42 %
05.02.2018 21:00 -0,2 C 4,4 C 77 % 1021,2 hPa 0,0 l/m 19,9 km/h (4 Bft) O-NO 0,00 h 0,026 mm 0,0 UV-I 0 W/m -3,8 C -9,8 C 27,1 km/h (4 Bft) 98,29 %
05.02.2018 22:00 -0,3 C 4,4 C 78 % 1020,9 hPa 0,0 l/m 18,7 km/h (3 Bft) O-NO 0,00 h 0,025 mm 0,0 UV-I 0 W/m -3,7 C -9,4 C 25,6 km/h (4 Bft) 97,21 %
05.02.2018 23:00 -0,6 C 4,4 C 80 % 1020,4 hPa 0,0 l/m 18,9 km/h (3 Bft) O-NO 0,00 h 0,025 mm 0,0 UV-I 0 W/m -3,6 C -9,8 C 26,7 km/h (4 Bft) 97,16 %
06.02.2018 00:00 -0,9 C 4,4 C 82 % 1019,7 hPa 0,0 l/m 18,4 km/h (3 Bft) O-NO 0,00 h 0,000 mm 0,0 UV-I 0 W/m -3,6 C -9,9 C 26,5 km/h (4 Bft) 97,30 %
06.02.2018 01:00 -1,2 C 4,4 C 83 % 1019,1 hPa 0,0 l/m 18,4 km/h (3 Bft) O-NO 0,00 h 0,025 mm 0,0 UV-I 0 W/m -3,8 C -10,4 C 26,2 km/h (4 Bft) 98,38 %
06.02.2018 02:00 -1,9 C 4,4 C 84 % 1018,6 hPa 0,0 l/m 11,6 km/h (2 Bft) NO 0,00 h 0,026 mm 0,0 UV-I 0 W/m -4,2 C -6,6 C 17,4 km/h (3 Bft) 96,35 %
06.02.2018 03:00 -2,4 C 4,4 C 85 % 1017,9 hPa 0,0 l/m 8,6 km/h (2 Bft) NO 0,00 h 0,025 mm 0,0 UV-I 0 W/m -4,6 C -4,7 C 13,3 km/h (3 Bft) 98,15 %
06.02.2018 04:00 -2,8 C 4,4 C 85 % 1017,4 hPa 0,0 l/m 9,1 km/h (2 Bft) NO 0,00 h 0,000 mm 0,0 UV-I 0 W/m -5,0 C -5,3 C 13,3 km/h (3 Bft) 97,29 %
06.02.2018 05:00 -2,7 C 4,4 C 83 % 1017,0 hPa 0,0 l/m 13,2 km/h (3 Bft) O-NO 0,00 h 0,000 mm 0,0 UV-I 0 W/m -5,2 C -9,0 C 19,6 km/h (3 Bft) 98,43 %
06.02.2018 06:00 -3,1 C 4,4 C 84 % 1016,7 hPa 0,0 l/m 8,7 km/h (2 Bft) O-NO 0,00 h 0,026 mm 0,0 UV-I 0 W/m -5,4 C -5,5 C 13,3 km/h (3 Bft) 96,33 %
06.02.2018 07:00 -3,5 C 4,2 C 86 % 1016,5 hPa 0,0 l/m 7,4 km/h (2 Bft) NO 0,20 h 0,000 mm 0,0 UV-I 16 W/m -5,6 C -4,7 C 11,2 km/h (2 Bft) 98,78 %
06.02.2018 08:00 -2,9 C 3,9 C 83 % 1016,3 hPa 0,0 l/m 17,9 km/h (3 Bft) O-NO 0,97 h 0,000 mm 0,0 UV-I 120 W/m -5,4 C -12,0 C 25,0 km/h (4 Bft) 98,32 %
06.02.2018 09:00 -2,2 C 3,9 C 81 % 1016,0 hPa 0,0 l/m 20,9 km/h (4 Bft) O-NO 1,00 h 0,050 mm 0,3 UV-I 257 W/m -5,0 C -12,8 C 28,7 km/h (4 Bft) 98,77 %
06.02.2018 10:00 -1,4 C 3,9 C 79 % 1015,8 hPa 0,0 l/m 19,0 km/h (3 Bft) O-NO 1,00 h 0,102 mm 0,6 UV-I 337 W/m -4,5 C -10,8 C 26,5 km/h (4 Bft) 98,29 %
06.02.2018 11:00 -0,6 C 3,9 C 77 % 1015,2 hPa 0,0 l/m 18,0 km/h (3 Bft) O-NO 1,00 h 0,127 mm 0,8 UV-I 392 W/m -4,0 C -9,3 C 24,7 km/h (4 Bft) 98,85 %
06.02.2018 12:00 0,1 C 4,1 C 77 % 1014,6 hPa 0,0 l/m 15,0 km/h (3 Bft) O-NO 0,80 h 0,152 mm 0,8 UV-I 297 W/m -3,5 C -6,8 C 21,2 km/h (4 Bft) 98,72 %
06.02.2018 13:00 0,6 C 4,4 C 76 % 1013,7 hPa 0,0 l/m 17,8 km/h (3 Bft) O-NO 0,80 h 0,127 mm 0,7 UV-I 318 W/m -3,2 C -7,8 C 24,3 km/h (4 Bft) 99,25 %
06.02.2018 14:00 0,8 C 4,4 C 75 % 1012,8 hPa 0,0 l/m 18,2 km/h (3 Bft) O-NO 0,00 h 0,127 mm 0,5 UV-I 170 W/m -3,0 C -7,6 C 24,3 km/h (4 Bft) 96,78 %
06.02.2018 15:00 1,0 C 4,4 C 75 % 1012,5 hPa 0,0 l/m 15,6 km/h (3 Bft) O-NO 0,03 h 0,102 mm 0,0 UV-I 103 W/m -2,9 C -6,1 C 21,5 km/h (4 Bft) 96,75 %
06.02.2018 16:00 0,6 C 4,4 C 77 % 1012,3 hPa 0,0 l/m 20,2 km/h (4 Bft) O-NO 0,87 h 0,076 mm 0,0 UV-I 64 W/m -3,0 C -8,9 C 27,7 km/h (4 Bft) 97,38 %
06.02.2018 17:00 -0,1 C 4,4 C 80 % 1012,1 hPa 0,0 l/m 23,0 km/h (4 Bft) O-NO 0,03 h 0,051 mm 0,0 UV-I 8 W/m -3,1 C -11,0 C 31,6 km/h (5 Bft) 99,11 %
06.02.2018 18:00 -0,7 C 4,4 C 84 % 1012,4 hPa 0,0 l/m 21,4 km/h (4 Bft) O-NO 0,00 h 0,025 mm 0,0 UV-I 0 W/m -3,1 C -11,1 C 29,5 km/h (5 Bft) 97,75 %
06.02.2018 19:00 -1,1 C 4,4 C 87 % 1012,4 hPa 0,0 l/m 21,2 km/h (4 Bft) O-NO 0,00 h 0,026 mm 0,0 UV-I 0 W/m -3,0 C -11,5 C 29,6 km/h (5 Bft) 96,75 %
06.02.2018 20:00 -1,3 C 4,4 C 88 % 1012,2 hPa 0,0 l/m 22,7 km/h (4 Bft) O-NO 0,00 h 0,025 mm 0,0 UV-I 0 W/m -3,0 C -12,4 C 31,8 km/h (5 Bft) 97,74 %
06.02.2018 21:00 -1,2 C 4,1 C 89 % 1012,0 hPa 0,0 l/m 20,5 km/h (4 Bft) O-NO 0,00 h 0,026 mm 0,0 UV-I 0 W/m -2,8 C -11,3 C 29,0 km/h (5 Bft) 99,40 %
06.02.2018 22:00 -1,0 C 3,9 C 89 % 1011,7 hPa 0,0 l/m 21,3 km/h (4 Bft) O-NO 0,00 h 0,025 mm 0,0 UV-I 0 W/m -2,6 C -11,4 C 30,4 km/h (5 Bft) 98,31 %
06.02.2018 23:00 -1,0 C 3,9 C 89 % 1011,4 hPa 0,0 l/m 22,5 km/h (4 Bft) O-NO 0,00 h 0,025 mm 0,0 UV-I 0 W/m -2,5 C -12,0 C 31,9 km/h (5 Bft) 96,81 %
07.02.2018 00:00 -1,0 C 3,9 C 90 % 1011,2 hPa 0,0 l/m 19,1 km/h (3 Bft) O-NO 0,00 h 0,000 mm 0,0 UV-I 0 W/m -2,5 C -10,4 C 26,6 km/h (4 Bft) 97,46 %
07.02.2018 01:00 -1,6 C 3,9 C 92 % 1010,9 hPa 0,0 l/m 9,4 km/h (2 Bft) NO 0,00 h 0,025 mm 0,0 UV-I 0 W/m -2,8 C -4,6 C 14,3 km/h (3 Bft) 98,91 %
07.02.2018 02:00 -2,0 C 3,9 C 92 % 1010,5 hPa 0,0 l/m 7,4 km/h (2 Bft) NO 0,00 h 0,000 mm 0,0 UV-I 0 W/m -3,1 C -3,2 C 11,2 km/h (2 Bft) 98,33 %
07.02.2018 03:00 -2,1 C 3,9 C 93 % 1010,2 hPa 0,0 l/m 8,5 km/h (2 Bft) NO 0,00 h 0,000 mm 0,0 UV-I 0 W/m -3,1 C -4,4 C 13,1 km/h (3 Bft) 96,67 %
07.02.2018 04:00 -2,0 C 3,9 C 92 % 1009,9 hPa 0,0 l/m 10,9 km/h (2 Bft) O-NO 0,00 h 0,000 mm 0,0 UV-I 0 W/m -3,0 C -6,3 C 15,8 km/h (3 Bft) 98,94 %
07.02.2018 05:00 -1,9 C 3,9 C 92 % 1009,5 hPa 0,0 l/m 11,8 km/h (2 Bft) O-NO 0,00 h 0,000 mm 0,0 UV-I 0 W/m -3,0 C -6,9 C 17,0 km/h (3 Bft) 98,48 %
07.02.2018 06:00 -1,7 C 3,9 C 92 % 1009,3 hPa 0,0 l/m 13,9 km/h (3 Bft) O-NO 0,00 h 0,000 mm 0,0 UV-I 0 W/m -2,8 C -8,2 C 19,5 km/h (3 Bft) 98,81 %
07.02.2018 07:00 -1,2 C 3,9 C 92 % 1009,7 hPa 0,0 l/m 16,9 km/h (3 Bft) O-NO 0,00 h 0,000 mm 0,0 UV-I 6 W/m -2,4 C -9,5 C 23,3 km/h (4 Bft) 96,41 %
07.02.2018 08:00 -0,9 C 3,9 C 92 % 1010,2 hPa 0,0 l/m 12,7 km/h (3 Bft) O-NO 0,00 h 0,000 mm 0,0 UV-I 16 W/m -2,0 C -6,5 C 18,8 km/h (3 Bft) 98,33 %
07.02.2018 09:00 -0,8 C 3,9 C 94 % 1010,2 hPa 0,0 l/m 10,4 km/h (2 Bft) NO 0,00 h 0,000 mm 0,0 UV-I 46 W/m -1,7 C -4,6 C 15,7 km/h (3 Bft) 98,14 %
07.02.2018 10:00 -0,7 C 3,9 C 95 % 1010,3 hPa 0,0 l/m 9,6 km/h (2 Bft) NO 0,00 h 0,026 mm 0,0 UV-I 96 W/m -1,4 C -3,8 C 15,0 km/h (3 Bft) 99,11 %
07.02.2018 11:00 -0,4 C 3,9 C 95 % 1010,3 hPa 0,0 l/m 8,3 km/h (2 Bft) NO 0,00 h 0,025 mm 0,0 UV-I 108 W/m -1,2 C -2,4 C 13,0 km/h (3 Bft) 96,64 %
07.02.2018 12:00 -0,4 C 3,9 C 95 % 1010,3 hPa 0,0 l/m 2,3 km/h (1 Bft) N 0,00 h 0,026 mm 0,0 UV-I 56 W/m -1,1 C -0,4 C 4,5 km/h (1 Bft) 96,71 %
07.02.2018 13:00 -0,8 C 3,9 C 95 % 1010,4 hPa 0,0 l/m 4,9 km/h (1 Bft) O-NO 0,00 h 0,025 mm 0,0 UV-I 56 W/m -1,5 C -0,8 C 7,0 km/h (2 Bft) 98,10 %
07.02.2018 14:00 -0,9 C 3,9 C 95 % 1010,7 hPa 0,0 l/m 4,7 km/h (1 Bft) O-NO 0,00 h 0,025 mm 0,0 UV-I 70 W/m -1,6 C -0,9 C 6,9 km/h (2 Bft) 98,55 %
07.02.2018 15:00 -0,9 C 3,9 C 95 % 1011,0 hPa 0,0 l/m 2,0 km/h (1 Bft) SO 0,00 h 0,026 mm 0,0 UV-I 61 W/m -1,6 C -0,9 C 3,9 km/h (1 Bft) 98,28 %
07.02.2018 16:00 -0,9 C 3,9 C 94 % 1011,4 hPa 0,0 l/m 0,7 km/h (0 Bft) SO 0,00 h 0,025 mm 0,0 UV-I 22 W/m -1,7 C -0,9 C 1,6 km/h (1 Bft) 98,14 %
07.02.2018 17:00 -1,0 C 3,9 C 96 % 1011,8 hPa 0,2 l/m 0,5 km/h (0 Bft) SO 0,00 h 0,000 mm 0,0 UV-I 5 W/m -1,6 C -1,0 C 1,1 km/h (1 Bft) 96,22 %
07.02.2018 18:00 -1,1 C 3,9 C 96 % 1012,3 hPa 0,0 l/m 1,5 km/h (1 Bft) W 0,00 h 0,000 mm 0,0 UV-I 0 W/m -1,6 C -1,1 C 2,7 km/h (1 Bft) 98,65 %
07.02.2018 19:00 -1,1 C 3,9 C 96 % 1012,9 hPa 0,2 l/m 2,4 km/h (1 Bft) W 0,00 h 0,000 mm 0,0 UV-I 0 W/m -1,6 C -1,1 C 3,8 km/h (1 Bft) 98,62 %
07.02.2018 20:00 -1,0 C 3,9 C 96 % 1013,3 hPa 0,0 l/m 1,8 km/h (1 Bft) W-SW 0,00 h 0,000 mm 0,0 UV-I 0 W/m -1,6 C -1,0 C 3,6 km/h (1 Bft) 98,53 %
07.02.2018 21:00 -1,1 C 3,9 C 96 % 1014,0 hPa 0,0 l/m 2,1 km/h (1 Bft) W-SW 0,00 h 0,000 mm 0,0 UV-I 0 W/m -1,6 C -1,1 C 4,0 km/h (1 Bft) 97,18 %
07.02.2018 22:00 -1,1 C 3,9 C 96 % 1014,3 hPa 0,0 l/m 2,7 km/h (1 Bft) W-SW 0,00 h 0,000 mm 0,0 UV-I 0 W/m -1,7 C -1,1 C 4,4 km/h (1 Bft) 97,07 %
07.02.2018 23:00 -1,2 C 3,9 C 96 % 1014,3 hPa 0,0 l/m 3,0 km/h (1 Bft) W-SW 0,00 h 0,000 mm 0,0 UV-I 0 W/m -1,8 C -1,2 C 4,6 km/h (1 Bft) 98,02 %
08.02.2018 00:00 -1,3 C 3,9 C 96 % 1014,4 hPa 0,0 l/m 1,8 km/h (1 Bft) W-SW 0,00 h 0,000 mm 0,0 UV-I 0 W/m -1,8 C -1,3 C 3,1 km/h (1 Bft) 99,05 %
08.02.2018 01:00 -1,3 C 3,9 C 97 % 1014,7 hPa 0,0 l/m 1,4 km/h (1 Bft) W-SW 0,00 h 0,000 mm 0,0 UV-I 0 W/m -1,7 C -1,3 C 2,9 km/h (1 Bft) 96,42 %
08.02.2018 02:00 -1,3 C 3,9 C 96 % 1014,9 hPa 0,0 l/m 2,9 km/h (1 Bft) W-SW 0,00 h 0,000 mm 0,0 UV-I 0 W/m -1,8 C -1,3 C 4,3 km/h (1 Bft) 97,89 %
08.02.2018 03:00 -1,2 C 3,9 C 96 % 1015,0 hPa 0,0 l/m 2,8 km/h (1 Bft) W 0,00 h 0,000 mm 0,0 UV-I 0 W/m -1,8 C -1,2 C 4,6 km/h (1 Bft) 97,31 %
08.02.2018 04:00 -1,1 C 3,9 C 96 % 1015,4 hPa 0,0 l/m 2,9 km/h (1 Bft) W-SW 0,00 h 0,000 mm 0,0 UV-I 0 W/m -1,7 C -1,1 C 4,3 km/h (1 Bft) 99,62 %
08.02.2018 05:00 -1,0 C 3,9 C 96 % 1015,7 hPa 0,0 l/m 4,5 km/h (1 Bft) SW 0,00 h 0,000 mm 0,0 UV-I 0 W/m -1,6 C -1,0 C 6,5 km/h (2 Bft) 97,01 %
08.02.2018 06:00 -0,9 C 3,9 C 95 % 1016,4 hPa 0,0 l/m 5,1 km/h (1 Bft) W-SW 0,00 h 0,000 mm 0,0 UV-I 0 W/m -1,6 C -0,9 C 7,8 km/h (2 Bft) 97,95 %
08.02.2018 07:00 -0,9 C 3,9 C 94 % 1016,9 hPa 0,0 l/m 5,6 km/h (1 Bft) SW 0,00 h 0,000 mm 0,0 UV-I 6 W/m -1,7 C -0,9 C 8,5 km/h (2 Bft) 97,56 %
08.02.2018 08:00 -0,8 C 3,9 C 94 % 1017,5 hPa 0,0 l/m 5,4 km/h (1 Bft) W-SW 0,00 h 0,000 mm 0,0 UV-I 18 W/m -1,6 C -0,9 C 8,3 km/h (2 Bft) 98,77 %
08.02.2018 09:00 -0,5 C 3,9 C 94 % 1017,8 hPa 0,0 l/m 4,9 km/h (1 Bft) W-SW 0,00 h 0,000 mm 0,0 UV-I 45 W/m -1,3 C -0,5 C 7,8 km/h (2 Bft) 96,89 %
08.02.2018 10:00 -0,1 C 3,9 C 93 % 1018,2 hPa 0,0 l/m 4,3 km/h (1 Bft) W 0,00 h 0,025 mm 0,0 UV-I 77 W/m -1,1 C -0,1 C 6,4 km/h (2 Bft) 97,12 %
08.02.2018 11:00 0,2 C 3,9 C 92 % 1018,4 hPa 0,2 l/m 4,8 km/h (1 Bft) W-SW 0,00 h 0,026 mm 0,0 UV-I 137 W/m -0,9 C 0,2 C 8,3 km/h (2 Bft) 97,97 %
08.02.2018 12:00 0,5 C 3,9 C 90 % 1018,4 hPa 0,0 l/m 5,9 km/h (2 Bft) W-SW 0,00 h 0,051 mm 0,5 UV-I 197 W/m -0,9 C 0,1 C 9,8 km/h (2 Bft) 99,21 %
08.02.2018 13:00 0,7 C 3,9 C 90 % 1018,2 hPa 0,2 l/m 5,5 km/h (1 Bft) W 0,00 h 0,076 mm 0,5 UV-I 179 W/m -0,7 C 0,3 C 9,3 km/h (2 Bft) 97,82 %
08.02.2018 14:00 0,7 C 3,9 C 91 % 1018,1 hPa 0,4 l/m 3,2 km/h (1 Bft) W 0,00 h 0,076 mm 0,0 UV-I 137 W/m -0,7 C 0,7 C 5,2 km/h (1 Bft) 96,98 %
08.02.2018 15:00 0,6 C 3,9 C 91 % 1018,3 hPa 0,2 l/m 3,2 km/h (1 Bft) W 0,00 h 0,051 mm 0,0 UV-I 88 W/m -0,7 C 0,6 C 5,0 km/h (1 Bft) 96,96 %
08.02.2018 16:00 0,3 C 3,9 C 92 % 1018,4 hPa 0,0 l/m 1,2 km/h (1 Bft) W 0,00 h 0,025 mm 0,0 UV-I 37 W/m -0,9 C 0,3 C 2,6 km/h (1 Bft) 99,30 %
08.02.2018 17:00 -0,2 C 3,9 C 93 % 1018,7 hPa 0,0 l/m 2,7 km/h (1 Bft) W 0,03 h 0,026 mm 0,0 UV-I 7 W/m -1,2 C -0,2 C 4,7 km/h (1 Bft) 97,80 %
08.02.2018 18:00 -0,3 C 3,9 C 94 % 1019,1 hPa 0,0 l/m 2,6 km/h (1 Bft) W 0,00 h 0,000 mm 0,0 UV-I 0 W/m -1,2 C -0,3 C 4,5 km/h (1 Bft) 98,43 %
08.02.2018 19:00 -0,5 C 3,9 C 94 % 1019,3 hPa 0,0 l/m 1,4 km/h (1 Bft) W-NW 0,00 h 0,000 mm 0,0 UV-I 0 W/m -1,3 C -0,5 C 2,8 km/h (1 Bft) 96,51 %
08.02.2018 20:00 -0,7 C 3,9 C 94 % 1019,4 hPa 0,0 l/m 2,1 km/h (1 Bft) W-NW 0,00 h 0,000 mm 0,0 UV-I 0 W/m -1,5 C -0,7 C 3,5 km/h (1 Bft) 98,99 %
08.02.2018 21:00 -0,8 C 3,9 C 95 % 1019,4 hPa 0,0 l/m 1,3 km/h (1 Bft) W-NW 0,00 h 0,000 mm 0,0 UV-I 0 W/m -1,5 C -0,8 C 2,8 km/h (1 Bft) 98,22 %
08.02.2018 22:00 -1,2 C 3,9 C 95 % 1019,3 hPa 0,0 l/m 1,4 km/h (1 Bft) W-SW 0,00 h 0,000 mm 0,0 UV-I 0 W/m -1,9 C -1,2 C 2,8 km/h (1 Bft) 97,29 %
08.02.2018 23:00 -1,2 C 3,9 C 94 % 1019,2 hPa 0,0 l/m 2,1 km/h (1 Bft) S-SW 0,00 h 0,000 mm 0,0 UV-I 0 W/m -2,0 C -1,2 C 3,6 km/h (1 Bft) 98,25 %
09.02.2018 00:00 -1,4 C 3,9 C 95 % 1019,2 hPa 0,0 l/m 1,9 km/h (1 Bft) S-SW 0,00 h 0,000 mm 0,0 UV-I 0 W/m -2,1 C -1,4 C 3,2 km/h (1 Bft) 98,51 %
09.02.2018 01:00 -1,3 C 3,9 C 94 % 1019,2 hPa 0,0 l/m 1,5 km/h (1 Bft) S-SW 0,00 h 0,000 mm 0,0 UV-I 0 W/m -2,1 C -1,3 C 2,8 km/h (1 Bft) 98,76 %
09.02.2018 02:00 -1,2 C 3,9 C 94 % 1019,1 hPa 0,0 l/m 0,7 km/h (0 Bft) S-SW 0,00 h 0,000 mm 0,0 UV-I 0 W/m -2,0 C -1,2 C 1,6 km/h (1 Bft) 96,37 %
09.02.2018 03:00 -1,1 C 3,9 C 94 % 1018,8 hPa 0,0 l/m 1,0 km/h (0 Bft) S-SW 0,00 h 0,000 mm 0,0 UV-I 0 W/m -1,9 C -1,1 C 2,3 km/h (1 Bft) 99,32 %
09.02.2018 04:00 -1,2 C 3,9 C 95 % 1018,5 hPa 0,0 l/m 0,2 km/h (0 Bft) S-SW 0,00 h 0,000 mm 0,0 UV-I 0 W/m -1,9 C -1,2 C 0,5 km/h (0 Bft) 97,82 %
09.02.2018 05:00 -1,2 C 3,9 C 95 % 1018,4 hPa 0,0 l/m 0,0 km/h (0 Bft) N 0,00 h 0,000 mm 0,0 UV-I 0 W/m -1,8 C -1,2 C 0,2 km/h (0 Bft) 98,45 %
09.02.2018 06:00 -1,1 C 3,9 C 95 % 1018,3 hPa 0,0 l/m 0,2 km/h (0 Bft) S-SW 0,00 h 0,000 mm 0,0 UV-I 0 W/m -1,8 C -1,1 C 0,4 km/h (0 Bft) 96,26 %
09.02.2018 07:00 -1,1 C 3,9 C 95 % 1018,3 hPa 0,0 l/m 0,9 km/h (0 Bft) S-SW 0,00 h 0,000 mm 0,0 UV-I 12 W/m -1,8 C -1,1 C 1,5 km/h (1 Bft) 99,23 %
09.02.2018 08:00 -0,7 C 3,9 C 95 % 1018,2 hPa 0,0 l/m 1,4 km/h (1 Bft) S 0,00 h 0,000 mm 0,0 UV-I 52 W/m -1,4 C -0,7 C 2,3 km/h (1 Bft) 97,64 %
09.02.2018 09:00 -0,4 C 3,9 C 93 % 1018,0 hPa 0,0 l/m 3,8 km/h (1 Bft) O 0,00 h 0,025 mm 0,0 UV-I 108 W/m -1,4 C -0,4 C 5,1 km/h (1 Bft) 98,69 %
09.02.2018 10:00 -0,0 C 3,9 C 93 % 1017,7 hPa 0,2 l/m 2,7 km/h (1 Bft) O-NO 0,00 h 0,026 mm 0,5 UV-I 164 W/m -1,1 C -0,0 C 3,8 km/h (1 Bft) 95,76 %
09.02.2018 11:00 0,7 C 3,9 C 91 % 1017,3 hPa 0,4 l/m 2,8 km/h (1 Bft) O-NO 0,00 h 0,051 mm 0,6 UV-I 212 W/m -0,7 C 0,7 C 4,2 km/h (1 Bft) 97,99 %
09.02.2018 12:00 0,8 C 3,9 C 90 % 1016,5 hPa 0,2 l/m 3,2 km/h (1 Bft) O-NO 0,00 h 0,076 mm 0,6 UV-I 199 W/m -0,7 C 0,8 C 4,6 km/h (1 Bft) 97,90 %
09.02.2018 13:00 0,8 C 3,9 C 89 % 1016,0 hPa 0,4 l/m 4,6 km/h (1 Bft) NO 0,00 h 0,076 mm 0,6 UV-I 208 W/m -0,7 C 0,8 C 6,1 km/h (2 Bft) 98,96 %
09.02.2018 14:00 0,9 C 3,9 C 86 % 1015,5 hPa 0,0 l/m 5,3 km/h (1 Bft) NO 0,00 h 0,076 mm 0,0 UV-I 131 W/m -1,1 C 0,8 C 6,9 km/h (2 Bft) 97,75 %
09.02.2018 15:00 0,8 C 3,9 C 85 % 1015,2 hPa 0,2 l/m 5,2 km/h (1 Bft) NO 0,00 h 0,051 mm 0,0 UV-I 69 W/m -1,5 C 0,5 C 7,3 km/h (2 Bft) 99,12 %
09.02.2018 16:00 0,5 C 3,9 C 86 % 1015,0 hPa 0,0 l/m 6,7 km/h (2 Bft) N-NO 0,00 h 0,025 mm 0,0 UV-I 27 W/m -1,6 C -0,4 C 9,3 km/h (2 Bft) 96,10 %
09.02.2018 17:00 0,2 C 3,9 C 87 % 1015,0 hPa 0,0 l/m 4,8 km/h (1 Bft) N-NO 0,02 h 0,026 mm 0,0 UV-I 7 W/m -1,7 C 0,0 C 6,9 km/h (2 Bft) 98,24 %
09.02.2018 18:00 0,1 C 3,9 C 88 % 1015,3 hPa 0,0 l/m 5,4 km/h (1 Bft) N-NO 0,00 h 0,000 mm 0,0 UV-I 0 W/m -1,7 C -0,0 C 7,3 km/h (2 Bft) 97,61 %
09.02.2018 19:00 0,1 C 3,9 C 86 % 1015,4 hPa 0,0 l/m 7,1 km/h (2 Bft) NO 0,00 h 0,000 mm 0,0 UV-I 0 W/m -1,8 C -0,9 C 9,9 km/h (2 Bft) 98,88 %
09.02.2018 20:00 0,0 C 3,9 C 86 % 1015,4 hPa 0,0 l/m 6,6 km/h (2 Bft) O-NO 0,00 h 0,000 mm 0,0 UV-I 0 W/m -2,0 C -1,0 C 9,3 km/h (2 Bft) 96,33 %
09.02.2018 21:00 -0,1 C 3,9 C 87 % 1015,3 hPa 0,0 l/m 4,7 km/h (1 Bft) O-NO 0,00 h 0,000 mm 0,0 UV-I 0 W/m -2,0 C -0,2 C 6,5 km/h (2 Bft) 98,30 %
09.02.2018 22:00 -0,3 C 3,9 C 89 % 1015,3 hPa 0,0 l/m 2,3 km/h (1 Bft) O 0,00 h 0,000 mm 0,0 UV-I 0 W/m -1,8 C -0,3 C 3,5 km/h (1 Bft) 98,27 %
09.02.2018 23:00 -0,2 C 3,9 C 89 % 1015,3 hPa 0,0 l/m 2,2 km/h (1 Bft) O-NO 0,00 h 0,000 mm 0,0 UV-I 0 W/m -1,9 C -0,3 C 3,3 km/h (1 Bft) 98,90 %
10.02.2018 00:00 -0,4 C 3,9 C 89 % 1015,3 hPa 0,0 l/m 1,3 km/h (1 Bft) O-NO 0,00 h 0,000 mm 0,0 UV-I 0 W/m -1,9 C -0,4 C 1,9 km/h (1 Bft) 97,04 %
10.02.2018 01:00 -0,4 C 3,9 C 90 % 1015,6 hPa 0,0 l/m 0,1 km/h (0 Bft) O-NO 0,00 h 0,000 mm 0,0 UV-I 0 W/m -1,8 C -0,4 C 0,3 km/h (0 Bft) 97,63 %
10.02.2018 02:00 -0,5 C 3,9 C 90 % 1015,8 hPa 0,0 l/m 0,2 km/h (0 Bft) O-NO 0,00 h 0,000 mm 0,0 UV-I 0 W/m -1,8 C -0,5 C 0,5 km/h (0 Bft) 98,86 %
10.02.2018 03:00 -0,6 C 3,9 C 92 % 1015,9 hPa 0,0 l/m 2,1 km/h (1 Bft) W-SW 0,00 h 0,000 mm 0,0 UV-I 0 W/m -1,7 C -0,6 C 3,2 km/h (1 Bft) 98,40 %
10.02.2018 04:00 -0,6 C 3,9 C 93 % 1016,2 hPa 0,0 l/m 3,0 km/h (1 Bft) W-SW 0,00 h 0,000 mm 0,0 UV-I 0 W/m -1,6 C -0,6 C 4,2 km/h (1 Bft) 97,26 %
10.02.2018 05:00 -0,6 C 3,9 C 93 % 1016,4 hPa 0,0 l/m 1,9 km/h (1 Bft) W-SW 0,00 h 0,000 mm 0,0 UV-I 0 W/m -1,6 C -0,6 C 3,2 km/h (1 Bft) 97,41 %
10.02.2018 06:00 -0,6 C 3,9 C 92 % 1016,7 hPa 0,0 l/m 3,6 km/h (1 Bft) W 0,00 h 0,000 mm 0,0 UV-I 0 W/m -1,7 C -0,6 C 5,1 km/h (1 Bft) 98,88 %
10.02.2018 07:00 -0,5 C 3,9 C 91 % 1017,2 hPa 0,0 l/m 3,9 km/h (1 Bft) W 0,00 h 0,000 mm 0,0 UV-I 8 W/m -1,8 C -0,5 C 5,4 km/h (1 Bft) 97,64 %
10.02.2018 08:00 -0,6 C 3,9 C 92 % 1017,5 hPa 0,0 l/m 3,9 km/h (1 Bft) W 0,00 h 0,000 mm 0,0 UV-I 30 W/m -1,7 C -0,6 C 5,5 km/h (1 Bft) 97,09 %
10.02.2018 09:00 -0,4 C 3,9 C 91 % 1017,7 hPa 0,0 l/m 4,6 km/h (1 Bft) W 0,00 h 0,025 mm 0,0 UV-I 68 W/m -1,6 C -0,5 C 6,6 km/h (2 Bft) 97,75 %
10.02.2018 10:00 0,1 C 3,9 C 88 % 1017,8 hPa 0,0 l/m 3,1 km/h (1 Bft) W 0,00 h 0,026 mm 0,0 UV-I 108 W/m -1,7 C 0,0 C 4,8 km/h (1 Bft) 99,14 %
10.02.2018 11:00 0,6 C 3,9 C 86 % 1017,8 hPa 0,0 l/m 3,4 km/h (1 Bft) W-SW 0,00 h 0,051 mm 0,5 UV-I 165 W/m -1,5 C 0,6 C 5,0 km/h (1 Bft) 97,33 %
10.02.2018 12:00 1,0 C 3,9 C 82 % 1017,5 hPa 0,0 l/m 0,7 km/h (0 Bft) NW 0,00 h 0,050 mm 0,5 UV-I 138 W/m -1,6 C 1,0 C 1,5 km/h (1 Bft) 97,79 %
10.02.2018 13:00 1,2 C 3,9 C 81 % 1017,2 hPa 0,2 l/m 0,4 km/h (0 Bft) NW 0,00 h 0,051 mm 0,0 UV-I 122 W/m -1,6 C 1,2 C 1,1 km/h (1 Bft) 95,93 %
10.02.2018 14:00 1,3 C 3,9 C 82 % 1017,0 hPa 0,0 l/m 0,9 km/h (0 Bft) NO 0,00 h 0,051 mm 0,0 UV-I 106 W/m -1,4 C 1,3 C 1,7 km/h (1 Bft) 98,44 %
10.02.2018 15:00 1,2 C 3,9 C 84 % 1017,0 hPa 0,0 l/m 2,2 km/h (1 Bft) W-NW 0,00 h 0,051 mm 0,0 UV-I 45 W/m -1,2 C 1,2 C 3,5 km/h (1 Bft) 98,35 %
10.02.2018 16:00 0,9 C 3,9 C 87 % 1016,9 hPa 0,0 l/m 2,8 km/h (1 Bft) W-SW 0,00 h 0,025 mm 0,0 UV-I 27 W/m -1,0 C 0,9 C 4,1 km/h (1 Bft) 99,06 %
10.02.2018 17:00 0,7 C 3,9 C 89 % 1017,1 hPa 0,0 l/m 4,5 km/h (1 Bft) W-SW 0,03 h 0,026 mm 0,0 UV-I 8 W/m -0,9 C 0,7 C 6,1 km/h (2 Bft) 97,98 %
10.02.2018 18:00 0,8 C 3,9 C 89 % 1017,2 hPa 0,0 l/m 5,4 km/h (1 Bft) W-SW 0,00 h 0,000 mm 0,0 UV-I 0 W/m -0,9 C 0,7 C 7,1 km/h (2 Bft) 95,78 %
10.02.2018 19:00 0,7 C 3,9 C 88 % 1017,1 hPa 0,0 l/m 5,6 km/h (1 Bft) SW 0,00 h 0,000 mm 0,0 UV-I 0 W/m -1,1 C 0,6 C 7,5 km/h (2 Bft) 97,95 %
10.02.2018 20:00 0,6 C 3,9 C 87 % 1016,8 hPa 0,0 l/m 5,2 km/h (1 Bft) W-SW 0,00 h 0,000 mm 0,0 UV-I 0 W/m -1,3 C 0,6 C 7,3 km/h (2 Bft) 98,09 %
10.02.2018 21:00 0,3 C 3,9 C 87 % 1016,6 hPa 0,0 l/m 3,9 km/h (1 Bft) SW 0,00 h 0,000 mm 0,0 UV-I 0 W/m -1,7 C 0,3 C 5,3 km/h (1 Bft) 99,03 %
10.02.2018 22:00 -0,0 C 3,9 C 88 % 1016,6 hPa 0,0 l/m 3,1 km/h (1 Bft) SW 0,00 h 0,000 mm 0,0 UV-I 0 W/m -1,8 C -0,0 C 4,2 km/h (1 Bft) 95,72 %
10.02.2018 23:00 -0,2 C 3,9 C 88 % 1016,1 hPa 0,0 l/m 3,8 km/h (1 Bft) S-SW 0,00 h 0,000 mm 0,0 UV-I 0 W/m -1,9 C -0,2 C 5,1 km/h (1 Bft) 98,76 %
11.02.2018 00:00 0,0 C 3,9 C 87 % 1015,6 hPa 0,0 l/m 4,3 km/h (1 Bft) SW 0,00 h 0,000 mm 0,0 UV-I 0 W/m -1,8 C 0,0 C 5,9 km/h (2 Bft) 97,90 %
11.02.2018 01:00 0,1 C 3,9 C 88 % 1015,1 hPa 0,0 l/m 6,0 km/h (2 Bft) SW 0,00 h 0,000 mm 0,0 UV-I 0 W/m -1,7 C -0,3 C 8,1 km/h (2 Bft) 99,26 %
11.02.2018 02:00 0,2 C 3,9 C 88 % 1014,5 hPa 0,0 l/m 5,9 km/h (2 Bft) SW 0,00 h 0,000 mm 0,0 UV-I 0 W/m -1,6 C 0,0 C 8,3 km/h (2 Bft) 95,95 %
11.02.2018 03:00 0,2 C 3,9 C 88 % 1013,8 hPa 0,0 l/m 6,9 km/h (2 Bft) W-SW 0,00 h 0,000 mm 0,0 UV-I 0 W/m -1,5 C -0,6 C 9,7 km/h (2 Bft) 97,97 %
11.02.2018 04:00 0,4 C 3,9 C 90 % 1013,3 hPa 0,0 l/m 5,9 km/h (2 Bft) SW 0,00 h 0,000 mm 0,0 UV-I 0 W/m -1,1 C 0,2 C 8,1 km/h (2 Bft) 97,85 %
11.02.2018 05:00 0,5 C 3,9 C 90 % 1012,8 hPa 0,0 l/m 6,4 km/h (2 Bft) SW 0,00 h 0,000 mm 0,0 UV-I 0 W/m -1,0 C -0,1 C 8,8 km/h (2 Bft) 98,47 %
11.02.2018 06:00 0,5 C 3,9 C 90 % 1012,3 hPa 0,0 l/m 4,6 km/h (1 Bft) SW 0,00 h 0,000 mm 0,0 UV-I 0 W/m -0,9 C 0,5 C 6,5 km/h (2 Bft) 97,46 %
11.02.2018 07:00 0,6 C 3,9 C 89 % 1012,3 hPa 0,0 l/m 4,9 km/h (1 Bft) W-SW 0,00 h 0,000 mm 0,0 UV-I 13 W/m -0,9 C 0,6 C 6,7 km/h (2 Bft) 96,97 %
11.02.2018 08:00 0,7 C 3,9 C 89 % 1012,1 hPa 0,0 l/m 3,5 km/h (1 Bft) SW 0,12 h 0,000 mm 0,0 UV-I 69 W/m -1,0 C 0,7 C 5,0 km/h (1 Bft) 98,62 %
11.02.2018 09:00 1,6 C 3,9 C 84 % 1011,4 hPa 0,0 l/m 3,4 km/h (1 Bft) S-SW 1,00 h 0,025 mm 0,5 UV-I 292 W/m -0,9 C 1,6 C 5,4 km/h (1 Bft) 98,62 %
11.02.2018 10:00 2,7 C 3,9 C 77 % 1010,7 hPa 0,0 l/m 5,0 km/h (1 Bft) S-SW 1,00 h 0,102 mm 0,8 UV-I 403 W/m -1,0 C 2,5 C 7,2 km/h (2 Bft) 96,66 %
11.02.2018 11:00 3,2 C 3,9 C 73 % 1010,0 hPa 0,0 l/m 3,3 km/h (1 Bft) W-NW 1,00 h 0,152 mm 1,0 UV-I 479 W/m -1,2 C 3,2 C 5,3 km/h (1 Bft) 96,98 %
11.02.2018 12:00 4,0 C 3,9 C 67 % 1009,1 hPa 0,0 l/m 2,9 km/h (1 Bft) S-SW 1,00 h 0,178 mm 1,1 UV-I 491 W/m -1,6 C 4,0 C 4,7 km/h (1 Bft) 99,04 %
11.02.2018 13:00 4,5 C 3,9 C 63 % 1008,2 hPa 0,0 l/m 4,1 km/h (1 Bft) W-SW 0,95 h 0,203 mm 0,9 UV-I 418 W/m -1,9 C 4,5 C 6,6 km/h (2 Bft) 97,34 %
11.02.2018 14:00 4,6 C 3,9 C 64 % 1007,4 hPa 0,0 l/m 3,5 km/h (1 Bft) S-SW 0,57 h 0,178 mm 0,6 UV-I 246 W/m -1,6 C 4,6 C 5,6 km/h (1 Bft) 95,71 %
11.02.2018 15:00 4,4 C 4,0 C 68 % 1007,0 hPa 0,0 l/m 8,1 km/h (2 Bft) SW 0,00 h 0,102 mm 0,0 UV-I 113 W/m -1,0 C 2,2 C 12,2 km/h (2 Bft) 97,74 %
11.02.2018 16:00 3,4 C 4,2 C 78 % 1006,6 hPa 0,0 l/m 4,1 km/h (1 Bft) W-SW 0,47 h 0,076 mm 0,0 UV-I 60 W/m -0,0 C 2,9 C 6,2 km/h (2 Bft) 97,08 %
11.02.2018 17:00 3,0 C 4,3 C 82 % 1006,6 hPa 0,0 l/m 1,2 km/h (1 Bft) W-SW 0,15 h 0,025 mm 0,0 UV-I 11 W/m 0,2 C 3,0 C 2,2 km/h (1 Bft) 99,11 %
11.02.2018 18:00 2,5 C 4,4 C 85 % 1006,6 hPa 0,0 l/m 1,7 km/h (1 Bft) SW 0,00 h 0,000 mm 0,0 UV-I 0 W/m 0,2 C 2,5 C 3,0 km/h (1 Bft) 97,16 %
11.02.2018 19:00 2,4 C 4,4 C 86 % 1006,8 hPa 0,0 l/m 2,1 km/h (1 Bft) W-SW 0,00 h 0,000 mm 0,0 UV-I 0 W/m 0,2 C 2,4 C 3,4 km/h (1 Bft) 96,22 %
11.02.2018 20:00 2,3 C 4,4 C 88 % 1007,0 hPa 0,0 l/m 5,2 km/h (1 Bft) W-SW 0,00 h 0,000 mm 0,0 UV-I 0 W/m 0,5 C 2,2 C 7,1 km/h (2 Bft) 98,34 %
11.02.2018 21:00 2,3 C 4,4 C 92 % 1007,2 hPa 0,0 l/m 7,4 km/h (2 Bft) W-SW 0,00 h 0,000 mm 0,0 UV-I 0 W/m 1,1 C 1,1 C 10,6 km/h (2 Bft) 98,38 %
11.02.2018 22:00 2,4 C 4,4 C 94 % 1007,9 hPa 0,2 l/m 7,3 km/h (2 Bft) W-SW 0,00 h 0,000 mm 0,0 UV-I 0 W/m 1,4 C 1,4 C 10,7 km/h (2 Bft) 98,90 %
11.02.2018 23:00 2,1 C 4,4 C 95 % 1008,4 hPa 0,4 l/m 7,6 km/h (2 Bft) W-SW 0,00 h 0,000 mm 0,0 UV-I 0 W/m 1,4 C 0,7 C 10,7 km/h (2 Bft) 96,35 %
Min-Datum _ 06.02.18 06.02.18 11.02.18 11.02.18 - 05.02.18 - - - - - 06.02.18 06.02.18 05.02.18 09.02.18
_ Min-Zeit 07:34 07:16 13:27 16:34 - 00:00 - - - - - 07:12 08:48 00:00 19:43
Minimum _ -3,7 C 3,9 C 61 % 1006,4 hPa - 0,0 km/h (0 Bft) - - - - - -5,7 C -14,9 C 0,0 km/h (0 Bft) 82,35 %
Max-Datum _ 11.02.18 05.02.18 05.02.18 05.02.18 08.02.18 06.02.18 - 06.02.18 11.02.18 11.02.18 11.02.18 11.02.18 11.02.18 06.02.18 05.02.18
_ Max-Zeit 13:40 00:00 02:04 09:12 14:04 22:32 - 11:15 13:01 11:29 14:07 22:28 13:41 22:32 00:20
Maximum _ 4,9 C 4,4 C 97 % 1024,3 hPa 0,4 l/m 29,4 km/h
O-NO (5 Bft)
- 0,08 h 0,203 mm 1,1 UV-I 517 W/m 1,5 C 4,8 C 45,1 km/h
O-NO (6 Bft)
100,00 %
Durchschnitt _ -0,2 C 4,0 C 88 % 1015,7 hPa #3,6 l/m 7,2 km/h (2 Bft) O-NO #20:38 h #4,724 mm 0,6 UV-I 138 W/m -2,0 C -2,5 C 10,5 km/h (2 Bft) 97,84 %